Regional Weather Roundup
Issued by NWS

Home | Current Version | Previous Version | Text Only | Print | Product List | Glossary On
Versions: 1 2 3 4 5 6 7 8 9 10 11 12 13 14 15 16 17 18 19 20 21 22 23 24 25 26 27 28 29 30 31 32 33 34 35 36 37 38 39 40 41 42 43 44 45 46 47 48 49 50
000
ASUS43 KMPX 260510
RWRMN
WEATHER ROUNDUP FOR MINNESOTA
NATIONAL WEATHER SERVICE TWIN CITIES/CHANHASSEN MN
1200 AM CDT SAT JUL 26 2014


NOTE: "FAIR" INDICATES FEW OR NO CLOUDS BELOW 12,000 FEET WITH NO
SIGNIFICANT WEATHER AND/OR OBSTRUCTIONS TO VISIBILITY. N/A MEANS
CURRENT SKY AND/OR WEATHER CONDITIONS ARE NOT AVAILABLE.

MNZ060>063-068>070-260600-
   Twin Cities Metro

CITY           SKY/WX    TMP DP  RH WIND       PRES   REMARKS
TWIN CITIES    CLOUDY    77  69  76 SW6       29.80S
ST PAUL        CLOUDY    74  70  87 SE3       29.80R
CRYSTAL        CLOUDY    78  68  71 SW7       29.79R
BLAINE         CLOUDY    77  72  83 S3        29.80S
LAKEVILLE      CLOUDY    72  70  94 CALM      29.81S
EDEN PRAIRIE   CLOUDY    75  69  81 SW3       29.80R
SOUTH ST PAUL  CLOUDY    75  69  81 CALM      29.80S
LAKE ELMO      CLOUDY    72  70  94 SE3       29.82S
$$
MNZ001>005-007-008-013>017-022>024-027-028-260600-
   Northwest Minnesota

CITY           SKY/WX    TMP DP  RH WIND       PRES   REMARKS
BEMIDJI        CLEAR     64  56  75 W5        29.81R
HALLOCK        CLEAR     63  57  82 S3        29.74F
ROSEAU         CLEAR     63  55  77 SW6       29.75S
WARROAD        CLEAR     63  57  82 SW6       29.75S
THIEF RVR FALL CLEAR     63  55  77 W5        29.78F
CROOKSTON      CLEAR     59  55  88 SW7       29.79R
FOSSTON        CLEAR     57  55  94 S5        29.81F
DETROIT LAKES  CLEAR     64  57  77 CALM      29.85S
MOORHEAD       CLEAR     66  61  82 CALM      29.82S
PARK RAPIDS    PTCLDY    64  61  90 W7        29.83R
$$
MNZ006-009>011-018-025>026-260600-
   North Central Minnesota

CITY           SKY/WX    TMP DP  RH WIND       PRES   REMARKS
BAUDETTE       CLEAR     63  54  72 W3        29.76R
FLAG ISLAND    CLEAR     68  55  64 W8        29.72R
INTL FALLS     MOCLDY    67  65  93 W6        29.72F
WASKISH        CLEAR     70  61  73 W9        29.77S
BIG FORK       PTCLDY    66  64  94 SW2       29.77R
LONGVILLE      MOCLDY    70  68  94 W3        29.80R
GRAND RAPIDS   PTCLDY    70  66  88 SW5       29.78R
CRANE LAKE     PTCLDY    61  59  94 CALM      29.76R FOG
ORR            MOCLDY    66  63  88 S3        29.73F
COOK           PTCLDY    64  63  94 S3        29.77S
$$
MNZ012-019>021-037-260600-
   Northeast Minnesota

CITY           SKY/WX    TMP DP  RH WIND       PRES   REMARKS
DULUTH         CLOUDY    70  66  87 SW9       29.79R
ELY            MOCLDY    66  64  94 SW5       29.77F
HIBBING        CLOUDY    66  64  93 CALM      29.78R
EVELETH        CLOUDY    66  64  94 CALM      29.79S
DULUTH HARBOR  CLOUDY    64  63  94 N3        29.77S
TWO HARBORS    CLOUDY    66  61  82 W3        29.77R
SILVER BAY     PTCLDY    66  66 100 CALM      29.77R
GRAND MARAIS     N/A     54  53  97 CALM      29.76S
G MARAIS ARPRT CLOUDY    63  59  88 CALM      29.80S
$$
MNZ029>031-032-039>041-046>048-054>057-064-260600-
   West Central Minnesota

CITY           SKY/WX    TMP DP  RH WIND       PRES   REMARKS
FERGUS FALLS   CLEAR     66  55  68 NE3       29.83S
WHEATON        PTCLDY    66  64  94 NW2       29.85R
MORRIS         CLEAR     66  66 100 W3        29.83S FOG
ALEXANDRIA     MOCLDY    69  67  93 W5        29.86R
ELBOW LAKE     FAIR      68  65  90 NW6       29.84S
WADENA         PTCLDY    66  63  88 NW6       29.84R
GLENWOOD       CLEAR     68  66  94 W5        29.85R FOG
APPLETON       CLEAR     70  66  88 NW7       29.83R
BENSON         PTCLDY    66  64  94 CALM      29.84R FOG
ORTONVILLE     PTCLDY    70  66  88 CALM      29.84S
MADISON        CLEAR     70  66  88 NW3       29.84S
WILLMAR        FAIR      72  68  88 NW5       29.84R
$$
MNZ033>034-036-042>043-049>051-058-059-260600-
   Central Minnesota

CITY           SKY/WX    TMP DP  RH WIND       PRES   REMARKS
ST CLOUD       FOG       72  70  94 CALM      29.80R VSB 1
SAUK CENTRE    FAIR      66  65  97 NW3       29.83S FOG
PAYNESVILLE    RAIN      65  65 100 CALM      29.83R
AITKIN         CLEAR     70  64  83 CALM      29.79R HAZE
PINE RIVER     CLEAR     70  66  88 CALM      29.84R
BRAINERD       MOCLDY    69  67  93 SW5       29.81R
STAPLES        PTCLDY    68  66  94 W6        29.82R
LONG PRAIRIE   MOCLDY    68  66  94 W5        29.84R
LITTLE FALLS   FOG       64  63  94 CALM      29.82R VSB 1/4
LITCHFIELD     PTCLDY    73  73 100 CALM      29.82R
BUFFALO        CLOUDY    74  69  82 CALM      29.81S
MAPLE LAKE     CLOUDY    75  71  87 CALM      29.81F
$$
MNZ037-044-045-052-053-260600-
   East Central Minnesota

CITY           SKY/WX    TMP DP  RH WIND       PRES   REMARKS
PRINCETON      CLOUDY    75  72  88 CALM      29.80R
MORA           MOCLDY    70  68  94 CALM      29.81S
CAMBRIDGE      CLEAR     75  64  69 CALM      29.78S
RUSH CITY      CLOUDY    71  68  90 CALM      29.80S
MOOSE LAKE     CLOUDY    70  66  88 SW6       29.78R
HINCKLEY       CLOUDY    72  70  94 S3        29.80S
CLOQUET        CLOUDY    70  66  88 SW3       29.80R
MCGREGOR       MOCLDY    70  68  94 S3        29.80S
$$
MNZ071>073-080-081-089-090-097-098-260600-
   Southwest Minnesota

CITY           SKY/WX    TMP DP  RH WIND       PRES   REMARKS
MONTEVIDEO     CLEAR     70  66  88 CALM      29.84R
GRANITE FALLS  CLEAR     70  68  94 W7        29.85R
CANBY          CLEAR     67  66  95 NW3       29.85F
MARSHALL       CLEAR     72  66  83 NW7       29.83S
REDWOOD FALLS  PTCLDY    75  72  90 NW6       29.81R
OLIVIA         CLEAR     73  72  94 NW3       29.82R
PIPESTONE      CLEAR     73  70  88 NE3       29.85F
WINDOM         CLOUDY    73  70  88 CALM      29.84F
WORTHINGTON    CLOUDY    72  70  94 NW5       29.86R
JACKSON        PTCLDY    72  68  88 S5        29.85S
TRACY          MOCLDY    73  71  93 NW3       29.84S
SLAYTON        PTCLDY    72  70  95 CALM      29.87R
$$
MNZ065>067-074>077-082>085-091>093-260600-
   South Central Minnesota

CITY           SKY/WX    TMP DP  RH WIND       PRES   REMARKS
MANKATO        CLOUDY    73  66  78 S5        29.82S
NEW ULM        MOCLDY    73  72  94 SW7       29.81S
ST JAMES       MOCLDY    72  70  94 S5        29.83S
FAIRMONT       CLOUDY    72  63  73 S5        29.83S
GLENCOE        CLOUDY    75  68  80 S3        29.80S
FARIBAULT      CLEAR     73  66  78 CALM      29.83R
OWATONNA       PTCLDY    72  68  88 S3        29.84R
WASECA         MOCLDY    68  63  83 CALM      29.85R
ALBERT LEA     MOCLDY    73  70  88 CALM      29.84R
$$
MNZ078>079-086>088-094>096-260600-
   Southeast Minnesota

CITY           SKY/WX    TMP DP  RH WIND       PRES   REMARKS
ROCHESTER      LGT RAIN  69  67  93 S9        29.85F FOG
RED WING       CLOUDY    72  70  94 MISG      29.81S
STANTON        MOCLDY    73  68  86 CALM      29.81R
DODGE CENTER   MOCLDY    72  70  94 S3        29.85R FOG
WINONA         CLOUDY    70  64  83 SE3       29.86R FOG
AUSTIN         MIX PCPN  72  70  94 S8        29.84S
PRESTON        CLOUDY    67  67 100 S5        29.88R FOG
$$
ABBREVIATIONS USED IN REMARKS
   TC - TEMPERATURES IN CELSIUS
  WCI - WIND CHILL INDEX
   HX - HEAT INDEX
  VSB - VISIBILITY
$$


USA.gov is the U.S. government's official web portal to all federal, state and local government web resources and services.